Location: Mexico
(19.4000°N, 99.1500°W)
Time: 22:02:45
(UTC-06:00)

ISS - Pass Details

Date: 20 March 2018
Orbit: 402 x 408 km, 51.6° (Epoch: 19 July)

Event Time Altitude Azimuth Distance (km) Brightness Sun altitude
Rises 20:23:45 0° 226° (SW) 2,331 0.5 -23.4°
Reaches altitude 10° 20:25:52 10° 230° (SW) 1,474 -0.5 -23.9°
Enters shadow 20:27:55 33° 247° (WSW) 710 -2.2 -24.4°
